Time,TemperatureF,DewpointF,PressureIn,WindDirection,WindDirectionDegrees,WindSpeedMPH,WindSpeedGustMPH,Humidity,HourlyPrecipIn,Conditions,Clouds,dailyrainin,SoftwareType,DateUTC
2013-01-02 00:03:00,18.0,14.0,30.13,North,0,0.0,-999.0,85,-99.99,,,-99.99,,2013-01-02 05:03:00,
2013-01-02 00:12:00,16.0,12.0,30.12,North,0,0.0,-999.0,85,-99.99,,,-99.99,,2013-01-02 05:12:00,
2013-01-02 00:22:00,16.0,12.0,30.11,North,0,0.0,-999.0,85,-99.99,,,-99.99,,2013-01-02 05:22:00,
2013-01-02 00:33:00,14.0,10.0,30.12,SW,220,3.0,-999.0,85,-99.99,,,-99.99,,2013-01-02 05:33:00,
2013-01-02 00:42:00,16.0,12.0,30.11,WSW,240,3.0,-999.0,85,-99.99,,,-99.99,,2013-01-02 05:42:00,
2013-01-02 00:52:00,14.0,10.0,30.13,WSW,240,3.0,-999.0,85,-99.99,,,-99.99,,2013-01-02 05:52:00,
2013-01-02 01:02:00,14.0,12.0,30.12,SW,230,5.0,-999.0,92,-99.99,,,-99.99,,2013-01-02 06:02:00,
2013-01-02 01:12:00,14.0,10.0,30.11,WSW,250,3.0,-999.0,85,-99.99,,,-99.99,,2013-01-02 06:12:00,
2013-01-02 01:22:00,18.0,14.0,30.11,WSW,250,5.0,-999.0,85,-99.99,,,-99.99,,2013-01-02 06:22:00,
2013-01-02 01:32:00,16.0,14.0,30.11,WSW,250,5.0,-999.0,92,-99.99,,,-99.99,,2013-01-02 06:32:00,
2013-01-02 01:42:00,16.0,14.0,30.11,WSW,240,5.0,-999.0,92,-99.99,,,-99.99,,2013-01-02 06:42:00,
2013-01-02 01:52:00,18.0,16.0,30.12,WSW,250,3.0,-999.0,92,-99.99,,,-99.99,,2013-01-02 06:52:00,
2013-01-02 02:02:00,18.0,16.0,30.12,WSW,250,3.0,-999.0,92,-99.99,,,-99.99,,2013-01-02 07:02:00,
2013-01-02 02:12:00,19.0,16.0,30.12,West,280,3.0,-999.0,85,-99.99,,,-99.99,,2013-01-02 07:12:00,
2013-01-02 02:22:00,19.0,18.0,30.12,West,270,5.0,-999.0,92,-99.99,,,-99.99,,2013-01-02 07:22:00,
2013-01-02 02:32:00,19.0,18.0,30.12,West,260,3.0,-999.0,92,-99.99,,,-99.99,,2013-01-02 07:32:00,
2013-01-02 02:42:00,19.0,16.0,30.12,WSW,250,3.0,-999.0,85,-99.99,,,-99.99,,2013-01-02 07:42:00,
2013-01-02 02:52:00,19.0,16.0,30.13,West,270,3.0,-999.0,85,-99.99,,,-99.99,,2013-01-02 07:52:00,
2013-01-02 03:02:00,18.0,16.0,30.14,West,270,5.0,-999.0,92,-99.99,,,-99.99,,2013-01-02 08:02:00,
2013-01-02 03:12:00,19.0,16.0,30.13,West,270,3.0,-999.0,85,-99.99,,,-99.99,,2013-01-02 08:12:00,
2013-01-02 03:22:00,18.0,16.0,30.14,West,270,3.0,-999.0,92,-99.99,,,-99.99,,2013-01-02 08:22:00,
2013-01-02 03:32:00,18.0,12.0,30.15,West,260,3.0,-999.0,78,-99.99,,,-99.99,,2013-01-02 08:32:00,
2013-01-02 03:42:00,14.0,10.0,30.15,West,260,3.0,-999.0,85,-99.99,,,-99.99,,2013-01-02 08:42:00,
2013-01-02 03:52:00,14.0,12.0,30.14,West,270,3.0,-999.0,92,-99.99,,,-99.99,,2013-01-02 08:52:00,
2013-01-02 04:02:00,14.0,10.0,30.14,West,260,3.0,-999.0,85,-99.99,,,-99.99,,2013-01-02 09:02:00,
2013-01-02 04:12:00,16.0,12.0,30.14,West,260,3.0,-999.0,85,-99.99,,,-99.99,,2013-01-02 09:12:00,
2013-01-02 04:22:00,12.0,10.0,30.14,SW,230,5.0,-999.0,92,-99.99,,,-99.99,,2013-01-02 09:22:00,
2013-01-02 04:32:00,10.0,9.0,30.14,SW,230,6.0,-999.0,92,-99.99,,,-99.99,,2013-01-02 09:32:00,
2013-01-02 04:43:00,10.0,9.0,30.14,WSW,240,5.0,-999.0,92,-99.99,,,-99.99,,2013-01-02 09:43:00,
2013-01-02 04:52:00,12.0,10.0,30.14,SW,230,5.0,-999.0,92,-99.99,,,-99.99,,2013-01-02 09:52:00,
2013-01-02 05:02:00,12.0,10.0,30.14,WSW,240,5.0,-999.0,92,-99.99,,,-99.99,,2013-01-02 10:02:00,
2013-01-02 05:12:00,12.0,9.0,30.15,WSW,250,5.0,-999.0,85,-99.99,,,-99.99,,2013-01-02 10:12:00,
2013-01-02 05:22:00,12.0,9.0,30.15,WSW,240,3.0,-999.0,85,-99.99,,,-99.99,,2013-01-02 10:22:00,
2013-01-02 05:32:00,10.0,9.0,30.15,WSW,240,5.0,-999.0,92,-99.99,,,-99.99,,2013-01-02 10:32:00,
2013-01-02 05:42:00,10.0,7.0,30.15,WSW,240,5.0,-999.0,85,-99.99,,,-99.99,,2013-01-02 10:42:00,
2013-01-02 05:52:00,10.0,9.0,30.15,WSW,240,6.0,-999.0,92,-99.99,,,-99.99,,2013-01-02 10:52:00,
2013-01-02 06:02:00,10.0,7.0,30.15,WSW,240,6.0,-999.0,85,-99.99,,,-99.99,,2013-01-02 11:02:00,
2013-01-02 06:12:00,10.0,7.0,30.16,West,260,5.0,-999.0,85,-99.99,,,-99.99,,2013-01-02 11:12:00,
2013-01-02 06:22:00,14.0,10.0,30.15,West,270,3.0,-999.0,85,-99.99,,,-99.99,,2013-01-02 11:22:00,
2013-01-02 06:33:00,14.0,10.0,30.15,West,260,5.0,-999.0,85,-99.99,,,-99.99,,2013-01-02 11:33:00,
2013-01-02 06:42:00,12.0,10.0,30.15,West,260,6.0,-999.0,92,-99.99,,,-99.99,,2013-01-02 11:42:00,
2013-01-02 06:52:00,12.0,10.0,30.15,West,260,3.0,-999.0,92,-99.99,,,-99.99,,2013-01-02 11:52:00,
2013-01-02 07:03:00,12.0,10.0,30.15,West,260,3.0,-999.0,92,-99.99,,,-99.99,,2013-01-02 12:03:00,
2013-01-02 07:12:00,12.0,10.0,30.15,West,270,3.0,-999.0,92,-99.99,,,-99.99,,2013-01-02 12:12:00,
2013-01-02 07:22:00,10.0,7.0,30.15,WSW,240,3.0,-999.0,85,-99.99,,,-99.99,,2013-01-02 12:22:00,
2013-01-02 07:33:00,9.0,7.0,30.15,SW,230,3.0,-999.0,92,-99.99,,,-99.99,,2013-01-02 12:33:00,
2013-01-02 07:42:00,9.0,5.0,30.15,North,0,0.0,-999.0,84,-99.99,,,-99.99,,2013-01-02 12:42:00,
2013-01-02 07:53:00,7.0,3.0,30.16,North,0,0.0,-999.0,84,-99.99,,,-99.99,,2013-01-02 12:53:00,
2013-01-02 08:03:00,7.0,1.0,30.17,SW,230,3.0,-999.0,78,-99.99,,,-99.99,,2013-01-02 13:03:00,
2013-01-02 08:12:00,5.0,1.0,30.17,North,0,0.0,-999.0,84,-99.99,,,-99.99,,2013-01-02 13:12:00,
2013-01-02 08:22:00,7.0,3.0,30.17,SW,230,3.0,-999.0,84,-99.99,,,-99.99,,2013-01-02 13:22:00,
2013-01-02 08:33:00,7.0,3.0,30.17,WSW,240,3.0,-999.0,84,-99.99,,,-99.99,,2013-01-02 13:33:00,
2013-01-02 08:43:00,7.0,3.0,30.17,WSW,240,5.0,-999.0,84,-99.99,,,-99.99,,2013-01-02 13:43:00,
2013-01-02 08:52:00,9.0,3.0,30.17,WSW,250,5.0,-999.0,78,-99.99,,,-99.99,,2013-01-02 13:52:00,
2013-01-02 09:02:00,9.0,5.0,30.18,SW,230,5.0,-999.0,84,-99.99,,,-99.99,,2013-01-02 14:02:00,
2013-01-02 09:12:00,9.0,3.0,30.19,SW,230,5.0,-999.0,78,-99.99,,,-99.99,,2013-01-02 14:12:00,
2013-01-02 09:22:00,9.0,5.0,30.20,WSW,240,5.0,-999.0,84,-99.99,,,-99.99,,2013-01-02 14:22:00,
2013-01-02 09:33:00,10.0,7.0,30.20,SW,230,6.0,-999.0,85,-99.99,,,-99.99,,2013-01-02 14:33:00,
2013-01-02 09:43:00,10.0,7.0,30.20,WSW,240,6.0,-999.0,85,-99.99,,,-99.99,,2013-01-02 14:43:00,
2013-01-02 09:53:00,10.0,9.0,30.21,SW,230,5.0,-999.0,92,-99.99,,,-99.99,,2013-01-02 14:53:00,
2013-01-02 10:03:00,10.0,9.0,30.22,SW,230,6.0,-999.0,92,-99.99,,,-99.99,,2013-01-02 15:03:00,
2013-01-02 10:12:00,12.0,9.0,30.22,SW,230,6.0,-999.0,85,-99.99,,,-99.99,,2013-01-02 15:12:00,
2013-01-02 10:22:00,12.0,9.0,30.21,WSW,240,7.0,-999.0,85,-99.99,,,-99.99,,2013-01-02 15:22:00,
2013-01-02 10:33:00,12.0,9.0,30.22,SW,230,6.0,-999.0,85,-99.99,,,-99.99,,2013-01-02 15:33:00,
2013-01-02 10:43:00,12.0,9.0,30.22,SW,230,7.0,-999.0,85,-99.99,,,-99.99,,2013-01-02 15:43:00,
2013-01-02 10:53:00,12.0,10.0,30.23,SW,230,6.0,-999.0,92,-99.99,,,-99.99,,2013-01-02 15:53:00,
2013-01-02 11:03:00,12.0,10.0,30.23,WSW,240,6.0,-999.0,92,-99.99,,,-99.99,,2013-01-02 16:03:00,
2013-01-02 11:13:00,12.0,10.0,30.23,WSW,240,6.0,-999.0,92,-99.99,,,-99.99,,2013-01-02 16:13:00,
2013-01-02 11:22:00,12.0,10.0,30.23,SW,230,6.0,-999.0,92,-99.99,,,-99.99,,2013-01-02 16:22:00,
2013-01-02 11:33:00,14.0,10.0,30.23,SW,230,7.0,-999.0,85,-99.99,,,-99.99,,2013-01-02 16:33:00,
2013-01-02 11:43:00,14.0,10.0,30.23,SW,230,6.0,-999.0,85,-99.99,,,-99.99,,2013-01-02 16:43:00,
2013-01-02 11:53:00,14.0,10.0,30.23,WSW,240,6.0,-999.0,85,-99.99,,,-99.99,,2013-01-02 16:53:00,
2013-01-02 12:03:00,14.0,10.0,30.23,SW,230,7.0,-999.0,85,-99.99,,,-99.99,,2013-01-02 17:03:00,
2013-01-02 12:13:00,16.0,10.0,30.23,SW,230,6.0,-999.0,78,-99.99,,,-99.99,,2013-01-02 17:13:00,
2013-01-02 12:23:00,16.0,9.0,30.22,WSW,240,3.0,-999.0,72,-99.99,,,-99.99,,2013-01-02 17:23:00,
2013-01-02 12:33:00,18.0,9.0,30.21,North,0,0.0,-999.0,67,-99.99,,,-99.99,,2013-01-02 17:33:00,
2013-01-02 12:43:00,18.0,9.0,30.21,North,0,0.0,-999.0,67,-99.99,,,-99.99,,2013-01-02 17:43:00,
2013-01-02 12:53:00,18.0,9.0,30.20,North,0,0.0,-999.0,67,-99.99,,,-99.99,,2013-01-02 17:53:00,
2013-01-02 13:03:00,18.0,9.0,30.20,North,0,0.0,-999.0,67,-99.99,,,-99.99,,2013-01-02 18:03:00,
2013-01-02 13:13:00,18.0,9.0,30.20,SSW,210,3.0,-999.0,67,-99.99,,,-99.99,,2013-01-02 18:13:00,
2013-01-02 13:23:00,19.0,9.0,30.20,SW,230,5.0,-999.0,62,-99.99,,,-99.99,,2013-01-02 18:23:00,
2013-01-02 13:33:00,19.0,9.0,30.20,SW,230,3.0,-999.0,62,-99.99,,,-99.99,,2013-01-02 18:33:00,
2013-01-02 13:43:00,19.0,9.0,30.20,North,0,0.0,-999.0,62,-99.99,,,-99.99,,2013-01-02 18:43:00,
2013-01-02 13:53:00,19.0,9.0,30.19,SW,220,3.0,-999.0,62,-99.99,,,-99.99,,2013-01-02 18:53:00,
2013-01-02 14:03:00,19.0,9.0,30.19,SSW,210,3.0,-999.0,62,-99.99,,,-99.99,,2013-01-02 19:03:00,
2013-01-02 14:12:00,19.0,9.0,30.19,SSW,210,5.0,-999.0,62,-99.99,,,-99.99,,2013-01-02 19:12:00,
2013-01-02 14:23:00,19.0,9.0,30.19,WSW,240,5.0,-999.0,62,-99.99,,,-99.99,,2013-01-02 19:23:00,
2013-01-02 14:33:00,19.0,9.0,30.19,SW,230,5.0,-999.0,62,-99.99,,,-99.99,,2013-01-02 19:33:00,
2013-01-02 14:43:00,19.0,9.0,30.20,SW,230,5.0,-999.0,62,-99.99,,,-99.99,,2013-01-02 19:43:00,
2013-01-02 14:52:00,19.0,9.0,30.19,SW,220,5.0,-999.0,62,-99.99,,,-99.99,,2013-01-02 19:52:00,
2013-01-02 15:03:00,19.0,9.0,30.19,SW,230,3.0,-999.0,62,-99.99,,,-99.99,,2013-01-02 20:03:00,
2013-01-02 15:12:00,18.0,9.0,30.19,WSW,240,3.0,-999.0,67,-99.99,,,-99.99,,2013-01-02 20:12:00,
2013-01-02 15:23:00,18.0,9.0,30.19,North,0,0.0,-999.0,67,-99.99,,,-99.99,,2013-01-02 20:23:00,
2013-01-02 15:33:00,18.0,7.0,30.19,SW,220,3.0,-999.0,62,-99.99,,,-99.99,,2013-01-02 20:33:00,
2013-01-02 15:42:00,18.0,9.0,30.19,North,0,0.0,-999.0,67,-99.99,,,-99.99,,2013-01-02 20:42:00,
2013-01-02 15:53:00,18.0,9.0,30.19,North,0,0.0,-999.0,67,-99.99,,,-99.99,,2013-01-02 20:53:00,
2013-01-02 16:03:00,18.0,9.0,30.19,North,0,0.0,-999.0,67,-99.99,,,-99.99,,2013-01-02 21:03:00,
2013-01-02 16:13:00,18.0,7.0,30.19,North,0,0.0,-999.0,62,-99.99,,,-99.99,,2013-01-02 21:13:00,
2013-01-02 16:22:00,18.0,7.0,30.19,North,0,0.0,-999.0,62,-99.99,,,-99.99,,2013-01-02 21:22:00,
2013-01-02 16:33:00,18.0,7.0,30.19,North,0,0.0,-999.0,62,-99.99,,,-99.99,,2013-01-02 21:33:00,
2013-01-02 16:43:00,16.0,7.0,30.20,SW,220,3.0,-999.0,67,-99.99,,,-99.99,,2013-01-02 21:43:00,
2013-01-02 16:52:00,16.0,5.0,30.19,WSW,240,3.0,-999.0,61,-99.99,,,-99.99,,2013-01-02 21:52:00,
2013-01-02 17:03:00,16.0,5.0,30.19,North,0,0.0,-999.0,61,-99.99,,,-99.99,,2013-01-02 22:03:00,
2013-01-02 17:12:00,16.0,5.0,30.20,North,0,0.0,-999.0,61,-99.99,,,-99.99,,2013-01-02 22:12:00,
2013-01-02 17:22:00,16.0,5.0,30.20,North,0,0.0,-999.0,61,-99.99,,,-99.99,,2013-01-02 22:22:00,
2013-01-02 17:32:00,12.0,3.0,30.20,North,0,0.0,-999.0,66,-99.99,,,-99.99,,2013-01-02 22:32:00,
2013-01-02 17:42:00,12.0,5.0,30.20,North,0,0.0,-999.0,72,-99.99,,,-99.99,,2013-01-02 22:42:00,
2013-01-02 17:52:00,12.0,5.0,30.20,North,0,0.0,-999.0,72,-99.99,,,-99.99,,2013-01-02 22:52:00,
2013-01-02 18:03:00,12.0,3.0,30.20,North,0,0.0,-999.0,66,-99.99,,,-99.99,,2013-01-02 23:03:00,
2013-01-02 18:13:00,12.0,5.0,30.20,North,0,0.0,-999.0,72,-99.99,,,-99.99,,2013-01-02 23:13:00,
2013-01-02 18:23:00,12.0,3.0,30.21,North,0,0.0,-999.0,66,-99.99,,,-99.99,,2013-01-02 23:23:00,
2013-01-02 18:33:00,12.0,3.0,30.21,North,0,0.0,-999.0,66,-99.99,,,-99.99,,2013-01-02 23:33:00,
2013-01-02 18:42:00,10.0,3.0,30.21,North,0,0.0,-999.0,72,-99.99,,,-99.99,,2013-01-02 23:42:00,
2013-01-02 18:52:00,12.0,3.0,30.21,North,0,0.0,-999.0,66,-99.99,,,-99.99,,2013-01-02 23:52:00,
2013-01-02 19:02:00,12.0,3.0,30.22,North,0,0.0,-999.0,66,-99.99,,,-99.99,,2013-01-03 00:02:00,
2013-01-02 19:12:00,10.0,3.0,30.22,North,0,0.0,-999.0,72,-99.99,,,-99.99,,2013-01-03 00:12:00,
2013-01-02 19:22:00,9.0,1.0,30.23,North,0,0.0,-999.0,71,-99.99,,,-99.99,,2013-01-03 00:22:00,
2013-01-02 19:38:00,10.0,3.0,30.23,North,0,0.0,-999.0,72,-99.99,,,-99.99,,2013-01-03 00:38:00,
2013-01-02 19:52:00,9.0,1.0,30.22,North,0,0.0,-999.0,71,-99.99,,,-99.99,,2013-01-03 00:52:00,
2013-01-02 20:02:00,9.0,1.0,30.22,North,0,0.0,-999.0,71,-99.99,,,-99.99,,2013-01-03 01:02:00,
2013-01-02 20:12:00,9.0,1.0,30.22,North,0,0.0,-999.0,71,-99.99,,,-99.99,,2013-01-03 01:12:00,
2013-01-02 20:22:00,10.0,1.0,30.22,North,0,0.0,-999.0,66,-99.99,,,-99.99,,2013-01-03 01:22:00,
2013-01-02 20:32:00,10.0,1.0,30.22,North,0,0.0,-999.0,66,-99.99,,,-99.99,,2013-01-03 01:32:00,
2013-01-02 20:42:00,10.0,1.0,30.22,North,0,0.0,-999.0,66,-99.99,,,-99.99,,2013-01-03 01:42:00,
2013-01-02 20:52:00,9.0,0.0,30.21,North,0,0.0,-999.0,66,-99.99,,,-99.99,,2013-01-03 01:52:00,
2013-01-02 21:02:00,9.0,0.0,30.21,North,0,0.0,-999.0,66,-99.99,,,-99.99,,2013-01-03 02:02:00,
2013-01-02 21:12:00,9.0,0.0,30.21,North,0,0.0,-999.0,66,-99.99,,,-99.99,,2013-01-03 02:12:00,
2013-01-02 21:22:00,9.0,1.0,30.22,North,0,0.0,-999.0,71,-99.99,,,-99.99,,2013-01-03 02:22:00,
2013-01-02 21:33:00,9.0,1.0,30.22,North,0,0.0,-999.0,71,-99.99,,,-99.99,,2013-01-03 02:33:00,
2013-01-02 21:43:00,9.0,1.0,30.22,North,0,0.0,-999.0,71,-99.99,,,-99.99,,2013-01-03 02:43:00,
2013-01-02 21:52:00,9.0,1.0,30.22,North,0,0.0,-999.0,71,-99.99,,,-99.99,,2013-01-03 02:52:00,
2013-01-02 22:02:00,7.0,1.0,30.21,SSE,150,3.0,-999.0,78,-99.99,,,-99.99,,2013-01-03 03:02:00,
2013-01-02 22:12:00,7.0,1.0,30.21,SSE,150,3.0,-999.0,78,-99.99,,,-99.99,,2013-01-03 03:12:00,
2013-01-02 22:22:00,7.0,0.0,30.20,SSE,160,3.0,-999.0,71,-99.99,,,-99.99,,2013-01-03 03:22:00,
2013-01-02 22:46:00,7.0,0.0,30.20,North,0,0.0,-999.0,71,-99.99,,,-99.99,,2013-01-03 03:46:00,
2013-01-02 22:52:00,7.0,0.0,30.20,North,0,0.0,-999.0,71,-99.99,,,-99.99,,2013-01-03 03:52:00,
2013-01-02 23:02:00,7.0,1.0,30.20,North,0,0.0,-999.0,78,-99.99,,,-99.99,,2013-01-03 04:02:00,
2013-01-02 23:12:00,7.0,0.0,30.20,North,0,0.0,-999.0,71,-99.99,,,-99.99,,2013-01-03 04:12:00,
2013-01-02 23:22:00,7.0,0.0,30.20,North,0,0.0,-999.0,71,-99.99,,,-99.99,,2013-01-03 04:22:00,
2013-01-02 23:32:00,7.0,1.0,30.20,North,0,0.0,-999.0,78,-99.99,,,-99.99,,2013-01-03 04:32:00,
2013-01-02 23:42:00,7.0,1.0,30.20,North,0,0.0,-999.0,78,-99.99,,,-99.99,,2013-01-03 04:42:00,
2013-01-02 23:52:00,7.0,1.0,30.20,North,0,0.0,-999.0,78,-99.99,,,-99.99,,2013-01-03 04:52:00,